| time (UTC) | temp F | wind direction | speed MPH | gust MPH | rain 1hr in | rain 24hr in | rain mn in | humidity % | barometer mb |
| 20260905133102 | 67 | 24 | 1.0 | 3.0 | 0.00 | 0.00 | 0.00 | 95 | 1016.4 |
| 20260905131557 | 67 | 24 | 1.0 | 3.0 | 0.00 | 0.00 | 0.00 | 95 | 1016.3 |
| 20260905130053 | 67 | 24 | 1.0 | 4.0 | 0.00 | 0.00 | 0.00 | 95 | 1016.2 |
| 20260905124550 | 67 | 19 | 1.0 | 4.0 | 0.00 | 0.00 | 0.00 | 95 | 1015.6 |
| 20260905123045 | 66 | 43 | 2.0 | 5.0 | 0.00 | 0.00 | 0.00 | 95 | 1015.2 |
| 20260905121555 | 66 | 30 | 2.0 | 4.0 | 0.00 | 0.00 | 0.00 | 95 | 1015.0 |
| 20260905120055 | 66 | 0 | 0.0 | 0.0 | 0.00 | 0.00 | 0.00 | 95 | 1015.3 |
| 20260905114559 | 66 | 0 | 0.0 | 0.0 | 0.00 | 0.00 | 0.00 | 95 | 1015.1 |
| 20260905113044 | 66 | 0 | 0.0 | 2.0 | 0.00 | 0.00 | 0.00 | 95 | 1015.0 |
| 20260905111603 | 66 | 0 | 0.0 | 5.0 | 0.00 | 0.00 | 0.00 | 94 | 1014.7 |
| 20260905110056 | 65 | 46 | 1.0 | 5.0 | 0.00 | 0.00 | 0.00 | 94 | 1014.8 |
| 20260905104607 | 65 | 51 | 1.0 | 3.0 | 0.00 | 0.00 | 0.00 | 94 | 1014.8 |
| 20260905103055 | 65 | 51 | 0.0 | 4.0 | 0.00 | 0.00 | 0.00 | 94 | 1014.9 |
| 20260905101554 | 65 | 0 | 2.0 | 6.0 | 0.00 | 0.00 | 0.00 | 94 | 1015.0 |
| 20260905100052 | 65 | 30 | 2.0 | 7.0 | 0.00 | 0.00 | 0.00 | 94 | 1014.7 |
| 20260905094652 | 65 | 13 | 0.0 | 7.0 | 0.00 | 0.00 | 0.00 | 94 | 1014.1 |
| 20260905093044 | 65 | 19 | 4.0 | 7.0 | 0.00 | 0.00 | 0.00 | 94 | 1013.9 |
| 20260905091557 | 65 | 24 | 3.0 | 7.0 | 0.00 | 0.00 | 0.00 | 93 | 1014.1 |
| 20260905090046 | 65 | 27 | 0.0 | 4.0 | 0.00 | 0.00 | 0.00 | 93 | 1014.3 |
| 20260905084603 | 65 | 22 | 0.0 | 3.0 | 0.00 | 0.00 | 0.00 | 93 | 1014.3 |
| 20260905083049 | 66 | 0 | 0.0 | 0.0 | 0.00 | 0.00 | 0.00 | 93 | 1014.3 |
| 20260905081549 | 66 | 0 | 0.0 | 0.0 | 0.00 | 0.00 | 0.00 | 92 | 1014.4 |
| 20260905074601 | 67 | 22 | 2.0 | 5.0 | 0.00 | 0.00 | 0.00 | 92 | 1014.5 |
| 20260905073107 | 67 | 11 | 2.0 | 3.0 | 0.00 | 0.00 | 0.00 | 92 | 1014.7 |
| 20260905071553 | 67 | 15 | 1.0 | 4.0 | 0.00 | 0.00 | 0.00 | 91 | 1014.6 |
| 20260905070050 | 67 | 10 | 2.0 | 4.0 | 0.00 | 0.00 | 0.00 | 91 | 1014.6 |
| 20260905064544 | 68 | 5 | 1.0 | 3.0 | 0.00 | 0.00 | 0.00 | 90 | 1014.5 |
| 20260905063050 | 68 | 33 | 1.0 | 3.0 | 0.00 | 0.00 | 0.00 | 90 | 1014.4 |
| 20260905061602 | 68 | 35 | 1.0 | 3.0 | 0.00 | 0.00 | 0.00 | 89 | 1014.3 |
| 20260905060104 | 69 | 36 | 1.0 | 3.0 | 0.00 | 0.00 | 0.00 | 89 | 1014.4 |
| 20260905054555 | 69 | 42 | 1.0 | 3.0 | 0.00 | 0.00 | 0.00 | 89 | 1014.3 |
| 20260905053044 | 70 | 49 | 1.0 | 3.0 | 0.00 | 0.00 | 0.00 | 89 | 1014.2 |
| 20260905051604 | 70 | 360 | 1.0 | 3.0 | 0.00 | 0.00 | 0.00 | 88 | 1014.0 |
| 20260905050057 | 70 | 360 | 1.0 | 4.0 | 0.00 | 0.00 | 0.00 | 87 | 1014.1 |
| 20260905044545 | 71 | 32 | 1.0 | 4.0 | 0.00 | 0.00 | 0.00 | 87 | 1013.9 |
| 20260905043052 | 71 | 32 | 2.0 | 4.0 | 0.00 | 0.00 | 0.00 | 86 | 1014.0 |
| 20260905041556 | 72 | 38 | 1.0 | 3.0 | 0.00 | 0.00 | 0.00 | 86 | 1013.9 |
| 20260905040049 | 72 | 38 | 1.0 | 3.0 | 0.00 | 0.00 | 0.00 | 85 | 1014.1 |
| 20260905034554 | 73 | 38 | 2.0 | 4.0 | 0.00 | 0.00 | 0.00 | 84 | 1014.2 |
| 20260905033104 | 73 | 30 | 3.0 | 6.0 | 0.00 | 0.00 | 0.00 | 84 | 1014.1 |
| 20260905031549 | 74 | 24 | 2.0 | 5.0 | 0.00 | 0.00 | 0.00 | 83 | 1013.9 |
| 20260905030048 | 75 | 26 | 3.0 | 5.0 | 0.00 | 0.00 | 0.00 | 83 | 1013.8 |
| 20260905024559 | 75 | 26 | 2.0 | 4.0 | 0.00 | 0.00 | 0.00 | 83 | 1013.9 |
| 20260905023052 | 76 | 26 | 2.0 | 4.0 | 0.00 | 0.00 | 0.00 | 83 | 1013.7 |
| 20260905021548 | 76 | 5 | 2.0 | 4.0 | 0.00 | 0.00 | 0.00 | 83 | 1013.3 |
| 20260905020045 | 76 | 344 | 2.0 | 4.0 | 0.00 | 0.00 | 0.00 | 83 | 1013.1 |
| 20260905014553 | 77 | 344 | 1.0 | 3.0 | 0.00 | 0.00 | 0.00 | 83 | 1012.9 |
| 20260905013110 | 78 | 343 | 1.0 | 3.0 | 0.00 | 0.00 | 0.00 | 81 | 1012.9 |
| 20260905011545 | 79 | 343 | 1.0 | 3.0 | 0.00 | 0.00 | 0.00 | 80 | 1012.5 |
| 20260905010059 | 80 | 343 | 0.0 | 3.0 | 0.00 | 0.00 | 0.00 | 78 | 1012.5 |
| 20260905004554 | 80 | 343 | 1.0 | 3.0 | 0.00 | 0.00 | 0.00 | 77 | 1012.3 |
| 20260905003045 | 81 | 343 | 2.0 | 3.0 | 0.00 | 0.00 | 0.00 | 76 | 1012.2 |
| 20260905001544 | 83 | 360 | 2.0 | 4.0 | 0.00 | 0.00 | 0.00 | 75 | 1012.2 |
| 20260905000055 | 83 | 360 | 2.0 | 4.0 | 0.00 | 0.00 | 0.00 | 74 | 1012.1 |
| 20260904234554 | 84 | 351 | 2.0 | 4.0 | 0.00 | 0.00 | 0.00 | 74 | 1012.1 |
| 20260904233050 | 85 | 332 | 2.0 | 4.0 | 0.00 | 0.00 | 0.00 | 74 | 1012.1 |
| 20260904231547 | 85 | 323 | 3.0 | 5.0 | 0.00 | 0.00 | 0.00 | 75 | 1011.9 |
| 20260904230100 | 85 | 352 | 3.0 | 5.0 | 0.00 | 0.00 | 0.00 | 75 | 1011.8 |
| 20260904224605 | 86 | 344 | 3.0 | 5.0 | 0.00 | 0.00 | 0.00 | 75 | 1011.7 |
| 20260904223106 | 86 | 346 | 2.0 | 4.0 | 0.00 | 0.00 | 0.00 | 74 | 1011.5 |
| 20260904221602 | 86 | 352 | 3.0 | 5.0 | 0.00 | 0.00 | 0.00 | 74 | 1011.5 |
| 20260904220050 | 86 | 18 | 2.0 | 5.0 | 0.00 | 0.00 | 0.00 | 74 | 1011.3 |
| 20260904214555 | 86 | 5 | 3.0 | 5.0 | 0.00 | 0.00 | 0.00 | 73 | 1011.2 |
| 20260904213101 | 86 | 348 | 3.0 | 6.0 | 0.00 | 0.00 | 0.00 | 74 | 1011.1 |
| 20260904211555 | 86 | 343 | 4.0 | 6.0 | 0.00 | 0.00 | 0.00 | 75 | 1011.2 |
| 20260904210055 | 87 | 350 | 4.0 | 9.0 | 0.00 | 0.00 | 0.00 | 74 | 1011.1 |
| 20260904204549 | 87 | 351 | 4.0 | 8.0 | 0.00 | 0.00 | 0.00 | 74 | 1011.1 |
| 20260904203046 | 87 | 344 | 4.0 | 9.0 | 0.00 | 0.00 | 0.00 | 74 | 1011.1 |
| 20260904201613 | 87 | 5 | 4.0 | 6.0 | 0.00 | 0.00 | 0.00 | 74 | 1010.9 |
| 20260904200108 | 87 | 352 | 3.0 | 9.0 | 0.00 | 0.00 | 0.00 | 74 | 1011.0 |
| 20260904194551 | 88 | 360 | 5.0 | 8.0 | 0.00 | 0.00 | 0.00 | 73 | 1011.0 |
| 20260904193046 | 88 | 343 | 4.0 | 8.0 | 0.00 | 0.00 | 0.00 | 72 | 1010.9 |
| 20260904191552 | 90 | 12 | 2.0 | 5.0 | 0.00 | 0.00 | 0.00 | 69 | 1010.9 |
| 20260904190048 | 91 | 350 | 2.0 | 4.0 | 0.00 | 0.00 | 0.00 | 66 | 1011.0 |
| 20260904184553 | 90 | 342 | 1.0 | 3.0 | 0.00 | 0.00 | 0.00 | 68 | 1011.1 |
| 20260904183046 | 90 | 0 | 0.0 | 3.0 | 0.00 | 0.00 | 0.00 | 68 | 1011.0 |
| 20260904181549 | 89 | 0 | 2.0 | 6.0 | 0.00 | 0.00 | 0.00 | 69 | 1011.0 |
| 20260904180050 | 89 | 0 | 1.0 | 5.0 | 0.00 | 0.00 | 0.00 | 69 | 1011.0 |
| 20260904174551 | 88 | 0 | 1.0 | 4.0 | 0.00 | 0.00 | 0.00 | 71 | 1011.0 |
| 20260904173046 | 87 | 355 | 2.0 | 5.0 | 0.00 | 0.00 | 0.00 | 72 | 1010.9 |
| 20260904171615 | 87 | 0 | 0.0 | 2.0 | 0.00 | 0.00 | 0.00 | 73 | 1010.9 |
| 20260904170051 | 87 | 0 | 0.0 | 3.0 | 0.00 | 0.00 | 0.00 | 75 | 1010.7 |
| 20260904164549 | 86 | 0 | 0.0 | 3.0 | 0.00 | 0.00 | 0.00 | 75 | 1010.7 |
| 20260904163052 | 86 | 344 | 2.0 | 3.0 | 0.00 | 0.00 | 0.00 | 75 | 1010.6 |
| 20260904161559 | 86 | 0 | 0.0 | 2.0 | 0.00 | 0.00 | 0.00 | 75 | 1010.6 |
| 20260904160056 | 85 | 0 | 0.0 | 0.0 | 0.00 | 0.00 | 0.00 | 75 | 1010.3 |
| 20260904154550 | 84 | 0 | 0.0 | 2.0 | 0.00 | 0.00 | 0.00 | 76 | 1010.5 |
| 20260904153108 | 84 | 273 | 0.0 | 3.0 | 0.00 | 0.00 | 0.00 | 76 | 1010.5 |
| 20260904151548 | 83 | 0 | 0.0 | 0.0 | 0.00 | 0.00 | 0.00 | 77 | 1010.5 |
| 20260904150051 | 81 | 0 | 0.0 | 3.0 | 0.00 | 0.00 | 0.00 | 82 | 1010.6 |
| 20260904144545 | 80 | 216 | 1.0 | 6.0 | 0.00 | 0.00 | 0.00 | 83 | 1010.5 |
| 20260904143112 | 79 | 198 | 3.0 | 6.0 | 0.00 | 0.00 | 0.00 | 84 | 1010.3 |
| 20260904141549 | 78 | 0 | 1.0 | 5.0 | 0.00 | 0.00 | 0.00 | 86 | 1010.4 |
| 20260904140045 | 77 | 0 | 0.0 | 5.0 | 0.00 | 0.00 | 0.00 | 88 | 1010.5 |
| 20260904134558 | 75 | 198 | 2.0 | 5.0 | 0.00 | 0.00 | 0.00 | 89 | 1010.4 |